Погода Озерная

Погода Озерная : погода сейчас, прогноз погоды и архив. Всё, что Вы хотите узнать о погоде Озерная!

Хотите узнать прогноз погоды Озерная? Тогда Вам сюда: Погода Озерная

Поиск расширенной информации на нашем сайте:

Другие новости

Новости СМИ2

Главная страница сайта

Новости сайта

02.10.2013

Напоминаем, что на нашем новом сайте вы можете получить высокодетализированные прогнозы погоды по пунктам России, СНГ и мира (включающие важные для авиации метеовеличины, такие как направление и скорость ветра, видимость, явления погоды, количество и форма облачности, нижняя и верхняя граница облачности), а также ознакомиться с разнообразными материалами по авиационной метеорологии и подборкой полезных ссылок на эту тему.

Сайт Метеоцентр.Азия посвящён разработке технологий оптимизации авиаметеорологического обслуживания, включая проектирование и перспективное создание нескольких автоматизированных авиаметеорологических систем:
- система выпуска высокодетальных прогностических карт явлений погоды для нижнего воздушного пространства по России и ближнему зарубежью;
- система верификации прогнозов TAF (выпускаемых синоптиками официальных АМСГ РФ и ближнего зарубежья) и AUTOTAF (выпускаемых сайтом Метеоцентр.Азия) - выявление ошибок, онлайн-сопоставление с фактической погодой METAR, автоматическое внесение коррективов в прогнозы при резком отклонении фактической погоды от прогноза, подсчёт оправдываемости прогнозов по элементам и в целом;
- система обработки, анализа и отображения авиаметеорологической информации для применения провайдерами метеорологической информации.


Погода Озерная - сегодня

Время (UTC), дата Ветер
(°,м/с) 
Видим.   Явления Облачность Т
(°С)
Тd
(°С)
f(%) Тe
(°С)
Pmin
(гПа)
dP
(гПа)
Po
(мм)
O2
(г/м3)
Тmin Tmax R s Состояние
почвы
18 16.01.17 100 (В) 20000 м    ясно 
-14.7 -16.8 84 -18  1010.3  -0.3  755  323           
21 16.01.17 080 (В) 10 км  слаб. ливневой снег  9/9 300 м кучево-дожд. 
[Cb cap]
-8.3 -11.4 78 -11  1009.7  -0.5  755  315  -15.7    0.0  неравномерный
мокрый или
старый снег
100% 
00 17.01.17 020 (С) 10 км  слаб. ливневой снег  9/9 300 м кучево-дожд. 
[Cb cap]
-7.5 -10.7 78 -11  1010.1  0.4  755  314           
03 17.01.17 360 (С) 10 км  слаб. ливневой снег  9/9 300 м кучево-дожд. 
[Cb cap]
-8.7 -12 77 -13  1009.5  -0.6  754  315           
06 17.01.17 070 (В) 20000 м  {ливн. осадки}  4/3 600 м верхняя 
[Sc|Ci fib]
-11.3 -13.5 84 -11  1010.5  755  319           
09 17.01.17 060 (СВ) 4000 м  слаб. ливневой снег  10/10 300 м кучево-дожд. 
[Cb cap]
-10 -11.8 87 -12  1011.4  0.9  756  317    -7  0.2     
12 17.01.17 070 (В) 20000 м  {ливн. осадки}  ясно 
-7.5 -12.1 70 -7  1012.4  757  315           
15 17.01.17 120 (ЮВ) 20000 м    1/0 верхняя 
[Ci fib]
-7.3 -13.5 61 -12  1013.5  1.1  757  315           
18 17.01.17 080 (В) 20000 м    4/0 верхняя 
[Ci fib]
-10.8 -14.9 72 -15  1014.8  1.3  758  319           
21 17.01.17 050 (СВ) 20000 м    3/3 1000 м 
[Sc]
-13.2 -17.1 72 -15  1016.2  1.3  759  323  -13.5    0.0  неравномерный
мокрый или
старый снег
100% 
00 18.01.17 080 (В) 20000 м    3/0 верхняя 
[Ci fib]
-8.4 -14.4 62 -11  1016.5  0.4  760  317  -14.2         
03 18.01.17 020 (С) 20000 м    ясно 
-7.9 -15.1 56 -11  1015.6  -0.9  759  316           
06 18.01.17 080 (В) 20000 м    ясно 
-10 -16.9 57 -14  1015.7  0.1  759  319           
09 18.01.17 080 (В) 20000 м    ясно 
-11.1 -17.2 61 -16  1015.8  759  320    -7.3       
12 18.01.17 070 (В) 20000 м    ясно 
-12.2 -16.5 70 -16  1016.3  0.6  759  322           
15 18.01.17 080 (В) 20000 м    ясно 
-15.5 -19.1 74 -22  1016.5  760  326           
18 18.01.17 080 (В) 20000 м    ясно 
-16.7 -20.1 75 -21  1017.1  0.6  760  328           
21 18.01.17 090 (В) 20000 м    ясно 
-18.2 -21.4 76 -23  1017.8  0.6  760  330  -19.3      неравномерный
мокрый или
старый снег
100% 
00 19.01.17 100 (В) 20000 м    3/0 верхняя 
[Ci fib]
-17.3 -21.2 72 -23  1018.1  0.3  761  329  -20.7         
03 19.01.17 100 (В) 20000 м    4/0 верхняя 
[Ci fib]
-11.8 -17.9 60 -15  1016.8  -1.1  760  321           
06 19.01.17 080 (В) 20000 м    8/0 верхняя 
[Ci fib]
-12.9 -16.8 73 -15  1017.4  0.5  760  323           
09 19.01.17 060 (СВ) 20000 м    4/0 верхняя 
[Ci fib]
-11.2 -16.3 66 -14  1017.7  0.4  761  321    -8.4       
12 19.01.17 050 (СВ) 20000 м    ясно 
-13 -19.2 60 -15  1017.9  0.1  761  323           
15 19.01.17 070 (В) 20000 м    3/0 верхняя 
[Ci fib]
-11.6 -19.1 54 -15  1017.6  -0.3  760  321           
18 19.01.17 090 (В) 20000 м    8/0 верхняя 
[Ci fib]
-10.5 -18.9 50 -15  1017.2  -0.4  760  320           
Время (UTC), дата Ветер
(°,м/с) 
Видим.   Явления Облачность Т
(°С)
Тd
(°С)
f(%) Тe
(°С)
Pmin
(гПа)
dP
(гПа)
Po
(мм)
O2
(г/м3)
Тmin Tmax R s Состояние
почвы

Для получения пояснительной информации подведите курсор к названию столбца.

ПОГОДА Озерная - архив

Всё, что Вы хотите узнать о погоде Озерная - удобно и подробно!

Выберите нужную дату (начиная с 1 января 2015* года) и нажмите кнопку "Найти".
Будут отображены архивные сводки погоды по пункту Озерная, начиная с указанной даты.


Отображать данные в формате CSV (для использования в таблицах Excel)


Внимание! Наш архив погоды предназначен исключительно для личного некоммерческого использования в познавательных целях. Если Вам необходимы официальные справки о состоянии погоды (для производственных, юридических, коммерческих и т.п. целей), обращайтесь в органы Росгидромета.

*Примечание: данная дата относится к архиву по метеостанциям СССР (Россия, СНГ, Балтия).
Архив по метеостанциям Зарубежной Европы и Азии (кроме Китая) хранится 10 дней, по другим регионам земного шара (Китай, Африка, Америка, Австралия, Океания) - 1 день.

Озерная - район местоположения метеостанции


Название, широта, долгота, высота метеостанции:
Озерная 51.5°ш. 156.5°д. 28 м над ур. моря [Российская Федерация]

Дополнительная информация

В oтличие oт бoльшинства пoгoдных сайтoв мы публикуем пoдрoбную метеoинфoрмацию в детальнoм прoфессиoнальнoм фoрмате.

Характеристики температуры и влажнoсти вoздуха измеряются на высoте 2 м в тени вдали oт зданий и деревьев.
Скoрoсть ветра измеряется на высoте 10 м (на урoвне рoста челoвека скoрoсть ветра ниже в 1.5-2 раза). Если метеoстанция нахoдится в гoрoде или в лесу, тo скoрoсть ветра занижена на 2-4 м/с пo сравнению с oткрытым местoм. Скoрoсть ветра над акватoриями крупных рек и oзёр, а также на вершинах хoлмoв на 2-5 м/с выше, чем в oбычных услoвиях.
Атмoсфернoе давление в разных тoчках местнoсти мoжет значительнo oтличаться oт давления на метеoстанции, в зависимoсти oт услoвий рельефа (при пoдъёме на 10 м давление пoнижается примернo на 1 мм рт.ст.).